Location: Pensacola
(30.4142°N, 87.2155°W)
Time: 08:48:05
(UTC-05:00)

NANOSAT C BR1 - Pass Details

Date: 08 August 2024
Orbit: 546 x 551 km, 98.1° (Epoch: 07 September)

Event Time Altitude Azimuth Distance (km) Brightness Sun altitude
Rises 04:20:49 0° 25° (NNE) 2,750 ? -22.1°
Reaches altitude 10° 04:23:10 10° 36° (NE) 1,852 ? -21.7°
Maximum altitude 04:26:42 30° 98° (E) 1,029 ? -21.1°
Enters shadow 04:30:06 11° 159° (SSE) 1,808 ? -20.5°
